Wind_Speed
42 44 45 44 43 42 42 42 41 41 42 44 47 49 51 52 52 51 51 52 52 52 52 50 49 48 48 47 46 44 44 43 42 42 41 40 39 38 38 37 36 36 36 36
39 41 41 42 42 42 41 41 40 39 40 41 44 47 48 51 51 50 50 50 50 50 50 50 49 49 48 48 47 46 45 45 44 44 43 42 41 41 40 39 38 38 38 38
34 36 39 40 40 40 40 39 38 38 38 40 41 44 45 47 48 48 48 48 48 49 49 49 49 49 48 48 48 47 47 47 46 45 45 44 43 42 42 41 40 40 40 40
31 33 36 38 38 38 38 38 37 37 38 39 40 42 41 44 46 45 44 44 45 46 47 48 48 48 48 48 48 48 48 47 47 46 46 45 44 44 43 43 42 42 42 42
28 32 33 34 35 35 36 36 36 36 37 37 38 39 39 41 42 42 41 41 43 44 45 46 46 47 47 48 48 48 48 48 48 48 47 46 45 45 44 43 44 44 44 44
26 30 32 32 33 34 34 34 34 34 34 36 35 37 36 37 38 39 40 41 42 43 44 44 45 45 45 46 47 47 48 49 49 48 48 47 47 46 45 45 45 45 46 45
26 29 31 31 32 33 32 32 32 33 34 33 33 34 31 32 35 37 39 41 43 43 43 44 44 44 45 45 45 46 47 47 47 47 47 47 47 47 47 46 46 46 46 46
24 28 29 30 30 31 31 31 31 32 32 32 31 31 28 29 32 36 38 41 43 44 44 44 44 45 45 45 45 46 46 46 47 47 47 47 47 47 47 47 46 46 45 45
22 26 28 29 29 29 30 30 30 30 30 30 30 28 27 27 30 34 37 39 41 43 45 45 45 46 46 46 46 46 46 46 46 46 47 46 46 46 46 46 45 45 45 45
19 23 26 28 29 30 29 29 29 29 28 28 28 26 26 27 30 32 35 37 40 42 44 45 46 47 47 47 47 47 47 47 47 47 47 46 46 46 46 45 45 46 46 47
17 21 23 26 28 28 28 28 29 29 29 27 26 25 24 25 27 30 33 35 37 40 42 44 45 46 47 47 47 47 47 47 46 46 46 46 46 46 46 46 46 47 47 47
15 18 20 22 24 27 27 28 28 29 28 27 25 24 23 23 24 27 29 31 34 37 40 42 43 44 45 46 46 47 47 47 46 46 46 46 46 46 46 47 47 47 46 45
14 17 18 20 22 25 27 27 27 27 28 28 27 24 22 21 22 24 27 29 31 33 36 39 41 42 43 45 45 45 45 46 46 46 46 46 46 46 46 45 45 44 43 43
14 16 17 18 20 22 24 26 27 28 28 27 25 22 21 23 24 25 27 28 29 31 33 35 37 39 40 41 42 43 44 44 44 45 44 44 44 44 43 43 42 41 40 39
16 17 17 18 20 21 23 25 27 28 27 27 23 23 21 24 26 27 28 28 29 30 31 32 34 36 37 39 40 40 41 42 42 42 41 41 41 41 40 40 39 38 37 36
17 18 19 20 20 22 23 24 25 26 26 26 25 22 22 25 27 28 29 30 30 30 31 31 32 33 34 36 37 37 38 38 38 39 39 39 38 38 37 36 36 35 35 35
18 18 19 20 21 22 22 22 24 24 23 24 24 21 24 26 27 28 29 30 30 30 31 31 32 32 32 33 33 34 35 35 35 35 35 35 35 34 34 34 33 33 33 32
19 19 20 20 21 21 20 20 22 22 22 23 22 21 23 25 26 27 27 28 28 29 30 31 30 30 30 31 31 31 31 32 32 32 32 32 32 32 32 32 31 31 30 30
21 21 21 21 21 20 20 19 20 21 21 22 22 22 23 24 24 23 25 26 27 28 29 29 28 28 28 29 28 28 29 29 29 29 29 30 30 30 30 30 29 29 28 27
21 22 22 22 22 21 20 20 21 21 21 22 22 22 22 22 21 22 24 25 26 27 27 27 26 27 27 27 27 27 27 27 27 28 28 27 27 28 27 27 27 27 26 26
21 22 22 22 22 21 20 21 21 22 22 21 21 21 21 21 21 22 22 22 23 24 24 24 25 25 25 25 25 26 26 26 26 26 26 26 26 26 26 26 25 25 25 25
20 21 21 21 21 20 21 21 21 21 20 20 21 20 20 21 21 21 21 22 22 22 22 22 23 23 23 24 24 24 24 24 24 24 25 25 24 24 24 24 24 24 24 24
21 21 21 21 20 20 20 21 21 21 20 20 20 20 20 20 20 20 21 21 21 21 22 22 22 23 23 23 23 23 23 23 23 24 24 24 24 24 23 23 24 24 24 24
22 22 22 21 21 21 21 21 21 21 21 21 20 20 20 20 20 20 20 20 21 22 22 22 22 22 23 23 23 23 23 24 24 24 24 24 24 24 24 24 24 24 24 24
21 22 23 22 22 22 22 22 21 20 20 21 21 20 20 20 20 20 20 20 20 20 21 21 22 22 23 23 23 23 23 23 23 24 24 24 24 24 24 24 24 24 24 25
21 22 23 23 23 23 23 23 23 21 21 20 20 21 21 21 21 21 21 21 21 21 21 21 22 23 23 23 23 24 24 24 24 24 24 24 24 25 25 25 25 25 26 27
Wind_Direction
195 198 201 203 207 210 214 216 219 222 223 223 222 222 221 222 222 223 225 227 229 231 233 233 233 234 235 236 238 239 241 243 246 249 251 254 256 259 262 265 269 272 275 279
193 196 198 201 205 208 211 213 216 220 222 223 223 223 224 224 224 224 225 226 228 230 232 233 234 235 236 237 238 240 242 243 246 248 251 253 256 259 262 265 268 271 274 277
189 193 196 199 202 207 210 212 215 218 222 224 225 225 225 226 226 226 227 228 229 231 233 234 234 235 237 239 240 241 243 245 247 249 251 254 256 259 262 265 268 270 273 275
187 191 195 198 201 205 209 211 215 218 221 224 226 228 227 228 229 228 228 230 231 233 235 236 236 237 238 240 242 243 245 247 248 250 253 255 257 260 262 265 267 270 272 274
187 188 191 196 199 202 207 210 214 218 222 226 227 230 227 230 232 231 231 232 232 233 235 236 237 238 239 240 242 244 245 247 249 251 253 255 258 260 263 265 267 270 273 274
189 189 190 194 198 201 204 209 214 218 223 227 228 232 229 230 233 233 233 233 232 233 234 236 237 239 240 241 243 244 246 248 250 252 254 256 258 260 262 264 267 270 272 274
189 190 192 195 199 202 204 209 213 218 223 226 228 232 230 228 231 232 233 233 233 234 236 237 238 239 240 242 244 245 247 249 251 252 254 256 258 260 262 264 267 269 271 273
193 193 194 198 201 204 206 211 216 221 225 228 230 233 231 229 231 233 234 234 235 236 237 238 239 240 242 243 245 246 248 249 251 253 254 256 258 260 263 265 267 268 270 273
194 195 198 200 203 204 207 212 218 224 228 231 232 232 232 233 233 234 235 236 236 237 238 239 240 242 243 245 246 247 249 250 251 253 255 257 259 261 262 264 266 269 271 275
191 196 200 203 206 208 211 214 218 223 229 232 232 232 235 237 237 236 236 238 238 238 238 239 240 242 244 245 247 248 249 251 252 254 255 257 259 261 263 265 268 270 273 276
196 201 203 205 208 211 214 217 222 227 232 236 236 235 237 240 241 240 239 240 240 240 240 241 241 243 245 247 248 249 250 251 253 254 256 258 260 262 264 266 269 272 275 277
207 209 211 214 215 216 219 222 226 231 234 237 240 237 239 244 244 243 242 242 242 242 241 242 243 244 245 247 248 250 251 252 253 255 257 259 261 263 265 268 271 273 275 277
215 221 224 224 223 223 225 226 229 234 236 240 242 242 241 244 245 245 244 243 243 243 242 243 243 245 247 248 249 250 251 253 254 255 257 259 262 264 266 269 271 273 275 276
225 225 227 228 226 227 227 227 230 235 239 242 243 245 244 245 245 244 244 244 243 244 244 245 245 246 248 250 251 252 252 253 255 256 258 260 262 264 267 269 270 272 274 275
234 231 231 231 230 230 230 231 234 238 244 246 245 245 241 244 246 245 245 244 243 243 244 245 247 248 249 250 252 253 254 255 255 256 258 260 262 264 266 268 269 271 272 274
239 237 235 236 237 236 235 237 241 245 247 248 248 245 245 246 247 247 246 245 243 243 244 245 246 248 249 250 251 252 254 255 256 257 258 260 262 263 265 267 268 270 272 273
243 242 241 242 243 243 242 243 246 247 248 250 252 249 247 248 249 249 248 248 247 246 245 245 246 248 249 250 251 252 253 254 255 257 257 259 261 262 264 265 267 268 270 271
246 245 245 244 245 246 247 246 247 249 250 253 255 252 250 251 250 251 252 252 251 251 250 249 249 250 251 252 252 252 252 253 254 255 256 258 259 261 262 264 265 266 267 269
246 247 247 247 247 247 248 248 248 249 250 252 254 252 252 253 254 253 251 249 249 249 250 250 250 250 251 251 251 251 251 252 253 254 256 257 258 260 261 262 263 264 266 267
248 248 249 250 251 249 249 249 249 250 251 251 254 254 254 254 254 251 249 247 247 248 249 249 249 249 250 250 250 250 251 251 253 254 255 256 258 259 260 260 262 263 264 267
249 249 250 251 252 251 250 250 250 251 252 253 254 254 253 252 250 250 251 250 250 250 249 248 248 248 249 250 250 251 252 252 253 254 255 256 257 258 258 259 261 263 265 268
250 251 250 251 253 252 251 252 251 252 252 252 253 253 253 252 252 252 251 250 249 248 248 248 248 249 250 250 251 252 253 254 254 255 255 256 257 257 258 260 261 263 266 269
249 249 250 250 252 252 251 252 251 252 252 252 253 253 253 252 252 252 252 250 249 248 248 248 249 250 251 252 253 253 253 254 255 255 256 257 257 258 259 261 262 265 267 269
248 248 249 248 249 250 250 250 251 252 253 253 253 252 253 253 252 252 252 251 249 249 249 250 250 251 252 253 255 256 256 256 256 257 257 257 258 259 261 262 264 265 267 270
248 248 249 249 249 250 250 250 251 253 253 253 252 252 253 253 253 252 252 252 252 250 250 250 251 252 253 255 256 257 257 258 258 258 258 259 260 261 262 262 264 266 268 271
251 250 250 249 248 250 251 252 251 252 254 255 254 253 252 252 252 252 252 252 252 252 253 253 254 255 256 257 258 259 259 260 261 261 261 261 261 262 262 263 265 267 270 273
Height
5621 5632 5641 5652 5662 5671 5679 5686 5694 5700 5706 5712 5719 5727 5732 5737 5743 5750 5756 5763 5769 5775 5781 5787 5792 5796 5801 5805 5808 5812 5815 5818 5820 5822 5824 5826 5828 5829 5830 5830 5830 5831 5830 5830
5621 5631 5641 5649 5658 5666 5673 5681 5688 5695 5700 5706 5712 5718 5723 5729 5736 5743 5749 5756 5762 5768 5773 5779 5784 5788 5792 5796 5800 5804 5807 5810 5812 5815 5817 5819 5820 5821 5822 5823 5823 5823 5823 5823
5622 5632 5639 5647 5655 5662 5670 5678 5685 5691 5696 5700 5706 5711 5717 5724 5730 5736 5743 5749 5755 5761 5766 5771 5775 5780 5784 5788 5792 5795 5798 5801 5804 5806 5809 5811 5812 5813 5814 5815 5815 5815 5815 5815
5622 5630 5637 5645 5653 5660 5667 5674 5680 5686 5690 5695 5701 5706 5713 5719 5724 5731 5738 5744 5750 5754 5759 5763 5767 5772 5775 5779 5783 5786 5790 5793 5795 5798 5800 5802 5803 5805 5806 5806 5807 5807 5806 5806
5623 5629 5636 5644 5651 5657 5665 5670 5676 5681 5686 5691 5696 5701 5709 5713 5719 5727 5734 5738 5742 5747 5751 5755 5759 5763 5766 5770 5774 5777 5781 5783 5786 5789 5791 5793 5794 5796 5797 5797 5798 5798 5797 5797
5624 5630 5636 5643 5649 5655 5662 5667 5672 5677 5681 5687 5692 5696 5704 5710 5716 5721 5725 5730 5734 5738 5742 5746 5750 5754 5758 5761 5765 5768 5771 5774 5777 5779 5782 5783 5785 5787 5788 5788 5789 5788 5788 5787
5625 5630 5636 5642 5647 5653 5659 5665 5670 5673 5677 5683 5688 5691 5701 5706 5709 5713 5717 5721 5725 5729 5734 5738 5742 5745 5748 5752 5755 5759 5762 5765 5767 5770 5772 5774 5775 5777 5778 5779 5779 5779 5778 5778
5627 5632 5637 5642 5647 5652 5657 5662 5668 5671 5675 5680 5683 5688 5697 5700 5703 5705 5709 5712 5716 5721 5725 5729 5733 5736 5739 5743 5746 5749 5752 5755 5758 5760 5762 5764 5766 5767 5768 5769 5769 5769 5768 5768
5628 5632 5637 5641 5645 5650 5654 5658 5664 5668 5671 5675 5679 5685 5690 5693 5696 5698 5701 5704 5708 5712 5716 5720 5723 5727 5730 5733 5737 5740 5742 5745 5748 5750 5752 5754 5755 5757 5757 5758 5759 5759 5758 5758
5629 5633 5636 5640 5643 5648 5652 5656 5660 5664 5667 5670 5675 5680 5685 5686 5688 5690 5693 5696 5699 5703 5706 5710 5714 5717 5720 5724 5727 5730 5733 5735 5738 5740 5742 5744 5745 5746 5747 5748 5748 5748 5748 5747
5629 5633 5636 5638 5642 5646 5650 5654 5656 5660 5663 5667 5671 5678 5678 5680 5681 5684 5686 5688 5691 5694 5698 5701 5704 5708 5711 5714 5717 5720 5722 5725 5728 5730 5732 5734 5735 5736 5737 5738 5738 5738 5737 5736
5630 5632 5634 5637 5640 5643 5646 5650 5653 5657 5660 5662 5665 5673 5672 5674 5675 5676 5679 5681 5683 5686 5689 5692 5696 5699 5702 5705 5707 5710 5713 5715 5718 5720 5722 5724 5725 5726 5727 5727 5727 5727 5727 5726
5629 5631 5633 5635 5639 5640 5642 5646 5649 5652 5654 5656 5659 5667 5666 5668 5669 5670 5672 5674 5676 5678 5681 5684 5687 5690 5692 5695 5698 5700 5703 5705 5708 5710 5712 5714 5715 5716 5717 5717 5717 5717 5717 5716
5628 5629 5632 5634 5634 5636 5639 5642 5645 5647 5649 5651 5655 5658 5661 5661 5662 5664 5665 5667 5669 5671 5673 5676 5678 5681 5683 5686 5688 5691 5693 5696 5698 5700 5702 5704 5705 5706 5707 5707 5707 5707 5707 5706
5625 5627 5628 5630 5631 5633 5635 5638 5639 5641 5644 5646 5649 5651 5654 5654 5655 5657 5659 5660 5662 5664 5666 5668 5670 5672 5675 5677 5679 5682 5684 5686 5688 5690 5692 5694 5695 5696 5697 5697 5697 5697 5697 5697
5622 5623 5625 5626 5628 5629 5631 5633 5635 5637 5639 5641 5643 5646 5648 5647 5648 5650 5652 5653 5655 5657 5659 5660 5662 5664 5666 5668 5671 5673 5675 5677 5679 5681 5683 5684 5685 5686 5687 5688 5688 5688 5688 5688
5618 5620 5621 5623 5624 5625 5628 5630 5630 5632 5634 5635 5636 5641 5640 5641 5642 5643 5645 5646 5648 5650 5651 5653 5655 5657 5659 5660 5663 5665 5667 5668 5670 5672 5674 5675 5676 5677 5678 5679 5679 5679 5679 5679
5614 5615 5616 5618 5620 5621 5626 5625 5626 5627 5629 5630 5631 5633 5633 5634 5635 5637 5638 5640 5642 5643 5644 5646 5648 5649 5651 5653 5655 5657 5658 5660 5662 5663 5665 5666 5667 5668 5669 5670 5670 5671 5671 5671
5609 5611 5612 5613 5615 5617 5620 5620 5621 5622 5624 5624 5625 5627 5627 5628 5630 5631 5632 5633 5634 5636 5637 5639 5641 5643 5644 5646 5648 5649 5651 5652 5654 5655 5657 5658 5659 5660 5661 5662 5662 5663 5663 5663
5604 5606 5608 5608 5610 5612 5615 5615 5615 5618 5618 5619 5620 5621 5622 5623 5624 5625 5625 5626 5628 5629 5631 5633 5634 5636 5638 5639 5641 5642 5644 5645 5647 5648 5649 5650 5651 5652 5653 5654 5654 5655 5655 5655
5599 5601 5602 5603 5604 5606 5609 5609 5611 5613 5614 5614 5614 5615 5616 5617 5619 5619 5620 5621 5623 5624 5625 5627 5628 5630 5632 5633 5634 5636 5637 5638 5639 5641 5642 5643 5644 5645 5646 5646 5647 5648 5648 5648
5594 5595 5597 5598 5599 5603 5603 5604 5606 5607 5607 5608 5609 5610 5611 5612 5613 5614 5615 5616 5617 5619 5620 5621 5623 5624 5626 5627 5628 5629 5630 5632 5633 5634 5635 5636 5637 5638 5639 5639 5640 5640 5640 5640
5588 5590 5591 5594 5597 5597 5597 5598 5599 5601 5602 5603 5604 5605 5606 5607 5608 5609 5610 5611 5612 5614 5615 5616 5617 5619 5620 5621 5622 5623 5624 5625 5626 5627 5628 5629 5630 5631 5632 5632 5633 5633 5633 5633
5582 5584 5586 5588 5590 5591 5591 5592 5594 5595 5597 5598 5599 5600 5601 5602 5603 5604 5605 5606 5607 5608 5609 5611 5612 5613 5614 5615 5616 5617 5618 5619 5620 5621 5622 5623 5623 5624 5625 5625 5626 5626 5626 5626
5576 5577 5579 5581 5584 5585 5586 5587 5589 5590 5591 5592 5593 5594 5596 5597 5598 5599 5600 5601 5602 5603 5604 5605 5606 5607 5608 5609 5610 5611 5612 5613 5614 5614 5615 5616 5617 5617 5618 5618 5618 5619 5619 5618
5570 5572 5573 5576 5577 5579 5581 5582 5583 5584 5585 5586 5588 5589 5590 5591 5592 5593 5594 5595 5596 5598 5598 5599 5600 5601 5602 5603 5604 5605 5605 5606 5607 5608 5608 5609 5610 5610 5610 5611 5611 5611 5611 5610